This is the latest recevied weather packets stored in our database for station/object W7TRD. If no packets are shown the sender has not sent any weather packets the latest 10 day(s).
| Time | Temp. | Humidity | Pressure | Rain* | Wind** | Luminosity | Snow |
|---|---|---|---|---|---|---|---|
| 1777400422 | 12.78° C | 66% | 1025.1 hPa | 0 mm | - | 345 W/m² | - |
| 1777400120 | 12.78° C | 66% | 1025.1 hPa | 0 mm | - | 334 W/m² | - |
| 1777399818 | 12.78° C | 67% | 1024.9 hPa | 0 mm | - | 303 W/m² | - |
| 1777397696 | 12.22° C | 69% | 1024.9 hPa | 0 mm | - | 262 W/m² | - |
| 1777397392 | 11.67° C | 71% | 1024.8 hPa | 0 mm | - | 260 W/m² | - |
| 1777396785 | 11.67° C | 72% | 1024.7 hPa | 0 mm | - | 239 W/m² | - |
| 1777396179 | 11.11° C | 74% | 1024.9 hPa | 0 mm | - | 218 W/m² | - |
| 1777395570 | 10.56° C | 78% | 1025 hPa | 0 mm | - | 157 W/m² | - |
| 1777394965 | 10.56° C | 79% | 1024.9 hPa | 0 mm | - | 140 W/m² | - |
| 1777394661 | 10.56° C | 79% | 1024.7 hPa | 0 mm | - | 112 W/m² | - |
| 1777394357 | 10.56° C | 80% | 1024.7 hPa | 0 mm | - | 103 W/m² | - |
| 1777393749 | 10.56° C | 80% | 1024.7 hPa | 0 mm | - | 107 W/m² | - |
| 1777393443 | 10.56° C | 80% | 1024.6 hPa | 0 mm | - | 60 W/m² | - |
| 1777390712 | 11.11° C | 81% | 1024.5 hPa | 0 mm | - | 108 W/m² | - |
| 1777389500 | 10.56° C | 81% | 1024.3 hPa | 0 mm | - | 97 W/m² | - |
| 1777387685 | 10.56° C | 84% | 1024.3 hPa | 0 mm | - | 57 W/m² | - |
| 1777386474 | 10° C | 85% | 1024 hPa | 0 mm | - | 50 W/m² | - |
| 1777385868 | 10° C | 86% | 1023.9 hPa | 0 mm | - | 25 W/m² | - |
| 1777385262 | 10° C | 86% | 1023.5 hPa | 0 mm | - | 25 W/m² | - |
| 1777384655 | 9.44° C | 86% | 1023.5 hPa | 0 mm | - | 20 W/m² | - |
| 1777383444 | 9.44° C | 87% | 1023.3 hPa | 0 mm | - | 19 W/m² | - |
| 1777383140 | 8.89° C | 87% | 1023.4 hPa | 0 mm | - | 16 W/m² | - |
| 1777382837 | 8.89° C | 88% | 1023.2 hPa | 0 mm | - | 11 W/m² | - |
| 1777381023 | 8.89° C | 88% | 1023.1 hPa | 0 mm | - | 1 W/m² | - |
| 1777380112 | 8.89° C | 88% | 1023.1 hPa | 0 mm | - | 0 W/m² | - |
* Rain latest hour (hover to see other rain measurements)
** Current wind speed in m/s (hover to see current wind gust speed)